TimeCEST,TemperatureF,Dew PointF,Humidity,Sea Level PressureIn,VisibilityMPH,Wind Direction,Wind SpeedMPH,Gust SpeedMPH,PrecipitationIn,Events,Conditions,WindDirDegrees,DateUTC
12:00 AM,50.0,44.6,82,29.92,-9999.0,West,8.1,-,N/A,,Clear,260,2013-09-19 22:00:00
12:30 AM,50.0,46.4,87,29.95,-9999.0,WNW,4.6,-,N/A,,Clear,300,2013-09-19 22:30:00
1:00 AM,50.0,46.4,87,29.95,-9999.0,WNW,11.5,-,N/A,,Clear,290,2013-09-19 23:00:00
1:30 AM,48.2,46.4,93,29.95,-9999.0,WNW,9.2,-,N/A,,Clear,290,2013-09-19 23:30:00
2:00 AM,48.2,46.4,93,29.95,-9999.0,WNW,8.1,-,N/A,,Clear,300,2013-09-20 00:00:00
2:30 AM,48.2,46.4,93,29.95,-9999.0,WNW,4.6,-,N/A,,Clear,300,2013-09-20 00:30:00
3:00 AM,48.2,46.4,93,29.95,-9999.0,Variable,2.3,-,N/A,,Clear,0,2013-09-20 01:00:00
3:30 AM,48.2,44.6,87,29.95,-9999.0,WSW,6.9,-,N/A,,Clear,250,2013-09-20 01:30:00
4:00 AM,46.4,44.6,93,29.95,-9999.0,WSW,10.4,-,N/A,,Clear,250,2013-09-20 02:00:00
4:30 AM,46.4,44.6,93,29.95,-9999.0,West,9.2,-,N/A,,Clear,270,2013-09-20 02:30:00
5:00 AM,46.4,44.6,93,29.95,-9999.0,WNW,6.9,-,N/A,,Clear,290,2013-09-20 03:00:00
5:30 AM,46.4,44.6,93,29.95,-9999.0,NNW,5.8,-,N/A,,Clear,330,2013-09-20 03:30:00
6:00 AM,46.4,42.8,87,29.95,-9999.0,WNW,6.9,-,N/A,,Clear,290,2013-09-20 04:00:00
6:30 AM,44.6,42.8,93,29.98,-9999.0,WNW,8.1,-,N/A,,Clear,300,2013-09-20 04:30:00
7:00 AM,46.4,44.6,93,29.98,-9999.0,WNW,6.9,-,N/A,,Clear,290,2013-09-20 05:00:00
7:30 AM,50.0,44.6,82,29.98,-9999.0,WNW,9.2,-,N/A,,Clear,290,2013-09-20 05:30:00
8:00 AM,51.8,44.6,76,29.98,-9999.0,West,4.6,-,N/A,,Clear,260,2013-09-20 06:00:00
8:30 AM,51.8,44.6,76,29.98,-9999.0,West,9.2,-,N/A,,Clear,270,2013-09-20 06:30:00
9:00 AM,55.4,44.6,67,30.01,-9999.0,West,8.1,-,N/A,,Clear,270,2013-09-20 07:00:00
9:30 AM,57.2,42.8,59,30.01,-9999.0,West,5.8,-,N/A,,Clear,270,2013-09-20 07:30:00
10:00 AM,57.2,42.8,59,30.01,6.2,West,9.2,-,N/A,,Scattered Clouds,280,2013-09-20 08:00:00
10:30 AM,59.0,42.8,55,30.01,6.2,WSW,6.9,-,N/A,,Scattered Clouds,250,2013-09-20 08:30:00
11:00 AM,59.0,41.0,51,30.01,6.2,NW,15.0,-,N/A,,Scattered Clouds,310,2013-09-20 09:00:00
11:30 AM,60.8,42.8,52,30.01,6.2,West,10.4,-,N/A,,Scattered Clouds,280,2013-09-20 09:30:00
12:00 PM,62.6,42.8,48,30.01,6.2,WNW,9.2,-,N/A,,Scattered Clouds,290,2013-09-20 10:00:00
12:30 PM,62.6,44.6,52,30.01,6.2,West,10.4,-,N/A,,Scattered Clouds,280,2013-09-20 10:30:00
1:00 PM,64.4,44.6,49,30.01,-9999.0,West,12.7,-,N/A,,Clear,270,2013-09-20 11:00:00
1:30 PM,64.4,44.6,49,30.01,6.2,WSW,12.7,-,N/A,,Scattered Clouds,250,2013-09-20 11:30:00
2:00 PM,62.6,44.6,52,30.01,6.2,West,12.7,-,N/A,,Scattered Clouds,260,2013-09-20 12:00:00
2:30 PM,62.6,44.6,52,30.01,6.2,West,11.5,-,N/A,,Scattered Clouds,260,2013-09-20 12:30:00
3:00 PM,62.6,46.4,55,29.98,6.2,West,10.4,-,N/A,,Scattered Clouds,260,2013-09-20 13:00:00
3:30 PM,62.6,44.6,52,29.98,6.2,West,11.5,-,N/A,,Scattered Clouds,280,2013-09-20 13:30:00
4:00 PM,64.4,44.6,49,29.98,6.2,West,13.8,-,N/A,,Scattered Clouds,270,2013-09-20 14:00:00
4:30 PM,62.6,46.4,55,29.98,6.2,West,12.7,-,N/A,,Scattered Clouds,280,2013-09-20 14:30:00
5:00 PM,62.6,46.4,55,29.98,6.2,WNW,10.4,-,N/A,,Scattered Clouds,300,2013-09-20 15:00:00
5:30 PM,62.6,46.4,55,30.01,6.2,WNW,10.4,-,N/A,,Mostly Cloudy,300,2013-09-20 15:30:00
6:00 PM,62.6,46.4,55,30.01,-9999.0,WNW,8.1,-,N/A,,Clear,300,2013-09-20 16:00:00
6:30 PM,60.8,46.4,59,30.01,-9999.0,WNW,8.1,-,N/A,,Clear,300,2013-09-20 16:30:00
7:00 PM,59.0,48.2,67,30.01,-9999.0,WNW,6.9,-,N/A,,Clear,290,2013-09-20 17:00:00
7:30 PM,60.8,46.4,59,30.01,-9999.0,West,8.1,-,N/A,,Clear,270,2013-09-20 17:30:00
8:00 PM,60.8,46.4,59,30.04,6.2,West,11.5,-,N/A,Rain,Light Rain Showers,270,2013-09-20 18:00:00
8:30 PM,60.8,48.2,63,30.04,6.2,West,16.1,-,N/A,,Mostly Cloudy,260,2013-09-20 18:30:00
9:00 PM,59.0,48.2,67,30.04,6.2,West,11.5,-,N/A,,Mostly Cloudy,270,2013-09-20 19:00:00
9:30 PM,59.0,50.0,72,30.04,6.2,West,10.4,-,N/A,,Mostly Cloudy,270,2013-09-20 19:30:00
10:00 PM,57.2,50.0,77,30.04,6.2,West,9.2,-,N/A,,Mostly Cloudy,270,2013-09-20 20:00:00
10:30 PM,57.2,51.8,82,30.04,6.2,West,12.7,-,N/A,,Mostly Cloudy,280,2013-09-20 20:30:00
11:00 PM,57.2,51.8,82,30.04,6.2,SW,8.1,-,N/A,,Mostly Cloudy,230,2013-09-20 21:00:00
11:30 PM,57.2,51.8,82,30.04,6.2,WSW,8.1,-,N/A,,Mostly Cloudy,240,2013-09-20 21:30:00